Terminal Aerodrome Forecast
Issued by NWS Memphis, TN

Home | Current Version | Previous Version | Text Only | Print | Product List | Glossary On
Versions: 1 2 3 4 5 6 7 8 9 10 11 12 13 14 15 16 17 18 19 20 21 22 23 24 25 26 27 28 29 30 31 32 33 34 35 36 37 38 39 40 41 42 43 44 45 46 47 48 49 50
000
FTUS44 KMEG 252336
TAFMEM
TAF
KMEM 252336Z 2600/2706 36005KT 6SM -DZ BKN008 OVC015
      TEMPO 2600/2603 4SM -DZ BR OVC007
     FM261400 02005KT P6SM SCT008 OVC012
     FM261900 04009KT P6SM SCT015 OVC025
     FM262300 05009KT P6SM SCT020 OVC030
     FM270300 06007KT 5SM -DZ BKN015 OVC025=

USA.gov is the U.S. government's official web portal to all federal, state and local government web resources and services.